Temp
6 6 6 6 6 6 6 6 7 7 7 7 7 8 8 8 7 7 7 7 7 7 7 7 7 7 7 7 7 6 6 6 6 6 6 6 6 6 6 6 6 6 6 6 7 6 6 6 6 6 6 7 7 7 8 8 8 9 9 9 10 10 10 11 11 10 8 7 8 8 7 7 7 7 6 7 7 7 7 7 7 8 8 8 7 6 6 6
6 6 6 6 6 6 6 7 7 7 7 7 8 8 8 7 7 7 7 7 7 7 7 7 7 7 7 7 6 6 6 6 6 6 6 6 6 6 6 6 7 7 7 7 7 6 6 6 6 7 7 7 7 8 8 8 9 9 9 10 10 10 10 10 10 9 8 7 7 7 7 6 6 6 7 7 7 6 6 6 7 7 7 7 6 6 5 5
6 6 6 6 6 6 7 7 7 7 7 8 8 8 8 7 7 7 7 7 7 7 7 7 7 7 6 6 6 6 6 6 6 6 6 6 6 6 6 6 6 7 7 7 7 6 7 7 7 7 7 8 8 8 9 9 9 9 9 10 10 9 9 10 9 8 8 7 7 7 6 6 6 6 7 7 6 6 6 6 6 7 7 6 6 6 5 5
6 6 6 6 6 6 6 7 7 7 8 8 8 7 7 7 7 7 8 7 7 7 7 7 7 7 6 6 6 6 6 5 6 6 6 6 6 6 6 6 6 7 7 7 7 7 7 7 7 8 8 9 9 9 9 9 9 9 9 9 9 9 10 9 9 8 7 7 7 6 6 6 6 6 6 6 6 6 6 6 6 6 6 6 6 6 5 5
6 6 6 6 6 6 6 7 7 7 8 8 7 7 7 7 7 8 8 8 7 7 7 7 7 7 7 6 6 6 6 6 6 6 6 6 6 6 6 6 6 7 7 7 7 7 7 7 7 8 9 9 9 9 9 9 9 10 9 9 9 10 10 9 8 8 7 8 7 6 5 6 7 6 6 6 6 6 6 6 6 6 6 6 6 6 6 6
6 5 5 5 6 6 7 7 7 8 8 7 7 7 7 7 8 8 8 8 7 7 7 7 7 7 6 6 6 6 6 6 6 6 6 6 6 6 6 6 6 6 7 7 7 7 7 8 8 8 9 10 9 9 9 9 9 10 10 9 10 10 10 9 7 7 7 8 7 6 6 7 7 6 6 6 6 5 6 6 6 6 6 6 6 6 6 6
6 5 5 6 6 7 7 7 8 8 7 7 7 7 7 7 8 8 8 8 7 7 7 7 7 6 6 6 6 6 6 6 6 6 6 6 6 6 6 6 6 6 6 7 7 7 8 8 9 9 10 10 10 10 10 10 9 10 10 10 10 10 9 8 6 7 7 8 7 6 6 6 6 6 6 6 5 5 5 6 6 6 6 6 6 6 6 6
5 5 5 6 6 7 7 7 8 7 7 7 7 7 7 7 8 8 8 8 7 7 7 7 7 6 7 7 6 6 6 6 6 6 6 6 6 7 7 6 7 7 7 7 7 8 8 9 9 9 10 10 10 10 10 10 10 10 11 10 10 9 8 7 7 7 8 7 7 7 7 6 6 5 5 5 5 5 5 6 6 6 6 6 6 6 6 6
5 5 6 6 6 7 7 7 7 7 7 7 7 7 7 7 8 8 8 7 7 7 7 7 7 7 7 7 7 7 6 6 6 6 6 7 7 7 7 7 7 7 7 7 8 8 9 9 9 9 10 10 10 10 10 10 11 11 11 10 9 8 7 7 7 7 8 7 7 7 7 6 6 6 5 5 5 5 5 6 6 6 6 6 6 6 6 6
5 6 6 6 7 7 7 7 7 7 7 7 7 7 7 8 8 8 8 7 7 7 7 7 7 7 7 7 7 7 7 6 6 7 7 7 7 7 7 7 7 6 7 8 8 9 9 9 9 10 10 10 10 10 10 10 11 10 10 10 9 8 8 7 6 7 7 6 7 8 7 6 7 6 5 4 5 5 4 5 6 6 6 6 6 6 6 6
6 6 6 6 7 7 7 7 6 7 7 7 7 7 7 8 8 8 8 7 7 7 7 7 7 7 7 7 7 7 7 6 6 6 7 7 7 7 7 7 6 6 7 8 8 8 9 9 9 9 10 10 10 10 10 10 10 10 10 10 9 8 8 7 6 7 7 6 7 8 7 7 6 6 5 4 5 5 5 6 6 6 6 6 6 6 6 6
6 6 6 7 7 7 7 6 6 7 7 7 7 7 7 8 8 8 8 7 7 7 7 7 7 7 7 7 8 8 7 6 6 6 7 7 7 7 8 7 7 7 7 8 8 8 8 9 9 9 10 10 10 10 10 10 10 10 10 10 10 9 8 7 7 7 8 7 7 8 8 7 6 5 5 4 4 5 5 6 6 6 6 6 6 6 6 5
6 6 6 7 7 7 6 6 7 7 7 7 7 7 7 7 7 7 7 7 7 7 7 7 7 7 7 7 8 8 7 7 7 7 7 7 7 7 7 7 7 7 7 7 8 8 8 8 9 9 9 10 10 10 10 10 10 10 10 10 10 9 8 8 7 7 8 8 7 8 7 6 6 5 4 4 4 4 4 5 6 6 6 6 6 6 6 5
6 6 7 7 6 6 6 6 7 7 7 8 7 7 7 7 7 7 7 7 7 7 7 7 7 7 7 8 8 8 8 7 7 7 7 8 7 7 7 7 7 7 7 7 8 8 8 8 9 10 10 10 10 10 10 10 10 10 10 10 10 9 9 8 8 8 7 7 7 7 7 6 6 5 4 4 4 3 3 4 5 6 6 6 6 5 6 6
6 6 7 6 6 6 6 6 7 7 8 8 7 7 7 7 7 7 7 7 7 7 7 7 7 7 7 8 8 8 8 8 8 7 7 7 7 7 8 8 8 8 8 8 8 8 8 8 9 10 10 10 10 10 10 11 10 11 11 11 10 9 9 9 8 8 7 7 7 7 6 5 5 5 4 4 4 3 3 4 5 5 5 5 5 5 5 5
6 6 6 6 6 6 6 7 7 7 7 7 7 7 7 7 7 7 7 7 7 7 7 7 7 7 8 8 8 8 8 8 8 7 8 8 7 8 8 8 8 8 8 8 8 8 8 9 9 10 10 10 10 10 10 10 10 10 10 10 11 10 9 9 8 8 8 7 7 7 5 4 5 5 4 3 4 4 4 4 5 6 5 5 5 5 4 4
6 6 6 6 6 6 6 7 7 7 7 7 7 7 7 7 7 7 7 7 7 7 8 8 8 7 8 8 8 8 8 8 8 8 8 8 8 8 8 8 8 8 8 8 8 8 9 9 9 9 9 9 10 10 9 9 9 9 9 9 10 10 9 9 8 8 8 7 7 7 5 4 4 4 4 4 4 4 5 5 5 5 5 5 5 5 4 5
6 6 6 6 6 6 7 7 7 7 7 7 7 7 7 7 7 7 7 7 7 8 8 8 8 8 8 8 8 8 8 8 8 8 8 8 8 8 8 8 8 9 9 9 8 9 9 9 8 8 8 9 9 9 8 8 8 8 9 8 8 9 8 8 8 8 8 8 7 6 5 4 4 4 4 4 4 4 5 5 5 4 5 5 5 4 4 5
6 6 6 5 6 6 7 7 7 7 7 7 7 7 7 7 7 7 7 8 8 8 8 9 9 9 9 9 8 8 8 8 8 8 8 8 8 8 8 8 9 9 9 9 9 9 9 8 8 8 8 9 9 9 9 8 8 8 8 8 7 7 7 7 8 8 8 8 6 5 5 5 4 4 4 3 3 4 4 5 5 4 4 4 4 4 4 5
6 6 6 5 6 6 7 7 7 7 7 7 7 7 7 7 7 8 8 8 8 8 9 9 9 9 9 9 9 9 8 8 8 9 8 8 8 8 8 9 9 9 9 9 9 9 9 8 8 9 9 9 9 9 9 8 8 8 8 7 7 7 7 7 7 7 8 8 6 5 5 4 4 4 4 3 3 3 3 3 4 4 4 4 4 4 5 5
6 6 6 6 6 6 7 7 7 7 7 7 7 7 7 7 7 8 8 8 8 8 8 9 9 9 9 8 9 9 9 9 9 9 8 8 8 8 9 9 9 9 9 9 9 9 9 9 9 9 9 9 9 9 9 8 7 8 8 7 6 6 7 6 6 7 7 7 6 5 4 3 4 4 4 3 3 3 3 3 3 3 4 4 4 4 4 4
6 6 6 6 6 6 7 7 7 7 7 7 7 6 7 7 7 8 8 8 8 8 8 8 9 9 8 8 8 9 9 9 9 9 9 9 8 9 9 9 9 10 10 10 9 8 9 9 9 9 9 9 9 9 8 8 8 8 8 7 6 6 6 6 6 6 7 6 5 5 4 3 3 3 3 4 4 4 4 4 4 4 4 4 3 3 3 4
6 6 6 6 6 6 7 7 7 7 7 6 6 7 7 7 7 8 8 8 8 9 9 9 9 9 8 9 9 9 9 9 9 9 8 8 9 9 9 9 10 10 10 10 10 9 9 9 9 9 9 9 9 9 8 8 8 8 7 7 6 5 5 5 5 6 6 6 5 5 4 4 3 3 4 4 4 4 4 4 4 4 4 4 3 3 3 3
6 6 6 6 6 6 6 7 7 7 7 6 6 7 7 7 7 8 8 8 9 9 9 9 9 9 9 9 9 9 9 9 9 9 8 8 9 9 9 10 10 10 10 10 10 10 9 9 9 9 9 8 9 9 8 7 7 7 7 6 6 5 5 5 5 6 6 6 5 5 4 3 3 3 4 4 4 4 4 4 4 4 4 4 4 4 3 3
6 6 6 6 6 6 6 7 7 7 7 6 7 7 7 7 7 8 8 8 9 9 9 9 9 9 9 9 9 9 9 9 9 8 8 8 9 9 10 10 10 10 10 10 10 10 9 9 9 9 9 8 8 8 8 7 6 6 6 6 6 5 5 5 5 6 6 6 6 5 5 4 3 3 4 5 4 4 4 4 5 5 5 4 4 3 3 3
6 6 6 6 6 6 6 6 6 6 6 6 7 7 7 7 7 8 7 8 9 10 9 9 9 9 9 9 9 9 9 9 9 8 8 8 9 9 9 10 10 10 10 10 9 9 9 8 9 9 8 8 8 8 8 7 6 6 6 6 6 5 5 5 5 6 6 7 6 6 6 4 3 3 4 4 4 4 4 4 4 4 4 4 3 3 3 2
6 6 6 6 6 6 6 6 6 7 7 7 7 7 7 7 7 7 7 8 9 10 9 9 9 9 9 9 9 9 9 9 9 8 8 9 9 9 9 10 10 9 9 9 9 8 9 8 8 9 9 8 8 8 8 7 6 6 5 6 5 5 5 5 5 6 6 7 7 6 6 4 3 3 3 4 4 4 4 4 4 4 3 3 3 3 2 2
6 6 6 6 6 6 6 6 6 6 6 7 7 7 7 7 7 7 7 8 9 9 10 9 9 9 9 9 9 9 9 9 9 9 8 8 9 9 9 10 10 9 9 9 9 8 8 8 8 8 9 8 8 8 8 7 6 6 5 6 5 5 5 5 5 6 6 6 7 6 6 5 3 3 3 3 3 3 3 3 3 4 4 3 3 3 2 2
6 6 6 6 6 6 6 6 6 6 6 7 7 7 7 7 7 7 7 8 9 9 9 9 9 9 9 9 9 9 9 9 9 9 8 9 9 9 9 9 9 10 9 9 9 8 7 7 7 8 8 8 7 7 7 7 6 6 6 6 5 5 5 5 5 6 5 6 7 7 7 6 4 3 3 3 3 3 3 3 3 3 3 3 3 3 2 2
6 6 6 6 6 6 6 6 6 7 7 7 7 7 7 7 7 7 7 8 9 9 9 9 10 9 9 10 10 9 9 9 9 9 9 9 9 9 9 9 10 10 9 9 9 8 7 7 7 7 8 8 8 7 7 7 6 6 6 6 5 5 5 6 5 6 5 5 6 7 7 7 5 4 4 3 4 4 3 3 3 3 3 3 3 3 3 3
6 6 6 6 6 6 6 6 6 7 7 7 7 7 7 7 7 7 8 9 9 9 9 10 10 10 10 10 10 10 10 9 9 9 9 9 9 9 9 9 10 10 9 9 9 8 8 8 8 7 7 8 8 8 7 7 6 7 7 6 7 6 6 6 6 5 5 4 6 7 7 7 6 5 4 4 4 4 4 4 3 3 3 3 3 3 3 3
6 6 6 6 6 6 7 6 6 7 7 7 7 7 7 7 7 8 9 10 9 10 10 10 10 10 10 10 10 10 9 9 9 9 10 10 10 9 9 9 10 10 10 10 10 9 9 9 8 8 8 8 9 8 8 7 7 7 7 7 7 5 5 6 6 5 5 5 6 7 6 6 6 5 5 4 4 4 4 3 3 3 3 3 3 4 4 3
6 6 6 6 6 7 7 7 7 7 7 7 7 7 7 6 7 9 10 10 10 9 10 10 10 9 10 10 10 9 9 9 9 9 9 10 10 10 9 9 9 9 10 10 10 10 9 8 8 8 8 8 8 8 8 8 8 7 7 7 7 6 5 5 6 6 6 6 6 7 6 5 5 5 4 4 4 4 3 3 3 3 4 4 4 3 3 3
6 6 6 6 7 7 7 7 7 7 7 7 7 7 7 7 9 10 10 10 10 10 10 9 10 10 9 10 9 9 9 9 9 9 10 10 10 9 9 9 9 9 9 10 10 10 10 9 8 8 8 8 8 8 8 8 8 8 8 8 8 8 8 6 6 5 6 7 7 7 6 5 5 5 4 4 4 4 3 3 3 4 4 4 4 3 3 3
6 6 6 7 7 7 7 7 7 7 7 7 7 7 7 7 9 10 10 10 10 10 10 9 10 10 10 10 9 9 9 9 9 9 9 9 9 9 9 8 8 8 8 9 9 10 10 9 8 8 7 7 7 8 8 8 9 9 9 9 9 9 9 7 7 6 7 8 8 7 6 5 5 5 4 4 4 4 3 3 4 3 3 3 3 3 3 2
6 6 6 7 7 7 7 7 7 7 7 7 7 7 7 8 9 9 9 10 9 9 10 10 10 11 11 11 10 9 9 9 9 9 9 9 8 8 8 8 7 8 8 8 9 10 10 9 8 8 7 7 7 7 7 8 8 9 9 9 9 9 9 8 8 8 8 8 8 8 7 5 5 4 4 4 4 3 4 4 4 4 3 3 3 3 2 2
6 7 7 7 7 7 7 7 7 7 7 7 7 7 8 9 9 9 9 9 9 9 9 10 10 10 11 11 10 10 10 9 10 10 9 8 8 8 8 7 7 7 7 8 8 9 9 9 8 8 8 8 7 7 7 8 8 8 9 9 9 9 9 9 9 9 9 8 8 9 7 5 5 5 4 4 4 4 4 4 4 4 3 3 3 2 2 1
7 7 7 7 7 7 7 7 7 7 7 7 7 8 9 9 9 8 8 9 9 9 9 10 10 10 10 11 10 10 10 10 10 10 9 9 8 7 7 7 7 7 7 7 8 9 9 9 9 8 8 8 8 8 8 8 8 8 8 8 8 8 9 9 9 9 9 9 9 9 8 6 6 6 5 5 4 4 4 4 4 3 3 3 3 3 2 1
7 7 6 7 7 7 7 7 7 7 7 7 8 9 9 9 8 8 8 8 8 8 9 10 10 10 10 10 10 10 10 10 10 9 9 8 8 7 7 7 7 7 7 7 8 8 8 9 9 9 8 8 8 8 8 9 8 8 9 9 8 8 8 9 9 9 9 9 9 9 8 6 6 6 5 5 5 4 4 4 4 4 3 4 3 3 2 2
7 7 6 7 7 7 7 7 7 7 7 7 8 9 9 9 8 8 8 8 8 8 9 9 10 10 10 10 10 10 10 10 9 9 9 8 7 7 7 6 7 7 7 7 8 8 8 8 9 9 9 9 8 8 8 8 8 8 9 9 8 8 9 9 9 10 10 9 9 9 7 6 6 6 5 5 4 4 4 4 4 4 4 3 3 3 2 1
7 6 6 6 7 7 7 7 7 7 7 8 9 9 9 9 8 8 9 8 8 8 8 9 9 9 9 9 10 10 10 10 9 9 8 8 7 7 6 6 6 7 7 7 8 8 7 8 9 9 9 8 8 7 7 7 7 7 8 8 8 8 8 8 9 9 10 9 10 9 7 6 6 6 5 5 4 4 4 4 3 3 3 3 3 2 2 1
7 6 6 6 7 7 7 7 7 7 8 9 9 9 9 9 8 8 8 8 8 8 8 9 9 9 9 9 9 9 9 9 9 8 8 7 7 6 6 6 6 6 7 7 8 8 8 8 9 9 8 8 7 7 8 7 7 7 7 7 7 7 7 8 8 8 9 9 10 9 7 5 5 6 6 5 5 4 4 3 3 3 3 3 2 2 1 1
6 6 6 6 7 7 7 7 7 8 8 9 9 8 8 8 9 8 8 9 9 8 8 9 8 8 8 8 9 9 9 8 8 8 8 7 6 6 6 6 6 6 6 7 7 7 7 7 8 9 8 7 7 7 7 7 7 7 7 6 7 7 7 7 7 7 8 9 9 9 7 5 5 5 5 5 4 4 4 3 3 3 3 2 2 2 1 1
6 6 6 7 7 7 7 7 8 9 9 8 8 8 8 8 9 9 9 9 8 8 8 8 8 8 8 8 9 9 8 8 8 8 8 7 6 6 6 6 6 6 6 6 6 7 7 7 7 9 9 8 7 7 7 7 7 7 7 6 7 6 6 7 7 8 8 8 9 8 7 5 5 5 5 5 4 4 3 3 3 3 2 2 2 2 1 1
6 6 6 7 7 7 7 7 8 9 8 8 8 7 7 8 8 9 9 8 8 8 8 8 8 8 8 8 9 9 8 8 8 8 8 7 6 6 6 6 6 6 6 6 6 6 7 7 7 8 8 7 7 7 7 7 7 7 6 6 6 6 6 6 7 8 8 8 8 7 6 6 5 5 5 5 5 4 4 3 3 3 2 2 2 1 1 1
6 6 6 6 7 7 7 7 8 8 8 7 7 7 7 8 8 8 8 8 8 8 8 8 8 8 8 8 9 9 9 8 8 8 8 7 7 6 6 6 6 7 6 6 6 6 6 7 6 6 7 7 6 6 6 6 7 7 6 6 6 6 6 6 6 6 6 7 6 6 6 6 5 5 5 5 4 4 4 3 3 3 2 2 2 1 1 1
7 7 6 6 7 7 7 7 8 8 7 7 7 7 8 8 8 8 8 8 8 8 8 8 8 8 8 8 8 9 8 8 8 8 8 8 7 6 6 6 6 6 6 6 6 6 7 7 6 6 6 6 6 6 6 6 7 7 6 6 6 6 6 6 6 6 6 6 6 5 5 6 6 6 5 5 4 4 4 3 3 3 2 2 2 2 1 1
6 7 7 7 7 7 7 8 8 8 8 7 7 7 8 8 8 8 8 8 8 8 8 8 7 7 7 7 8 8 8 8 7 7 8 8 7 7 7 7 6 6 6 6 6 6 7 7 6 6 6 6 6 6 6 6 6 6 6 6 6 6 6 6 6 5 5 6 6 5 5 5 6 5 5 4 4 4 4 4 3 3 3 2 2 2 1 1
6 7 6 7 7 7 8 8 7 7 7 7 7 8 8 8 8 8 8 8 8 8 7 7 7 7 7 7 8 8 7 7 7 7 7 7 7 8 8 7 7 6 6 6 6 6 7 7 6 6 6 6 6 6 6 6 6 6 7 6 6 6 6 6 6 5 5 5 5 5 5 5 5 5 4 4 4 4 4 4 3 3 3 2 2 2 1 1
6 6 6 6 7 7 7 7 7 7 7 7 7 7 8 8 8 8 8 8 8 8 7 7 7 7 7 7 7 7 7 7 7 7 6 7 7 7 7 7 7 7 6 6 6 6 6 7 6 6 6 6 6 6 6 6 6 6 7 7 6 6 6 6 6 6 5 5 5 5 5 5 5 4 4 4 3 3 3 3 3 3 3 3 2 2 2 2
6 6 6 7 7 6 7 7 7 7 7 7 7 7 8 8 8 8 8 8 8 8 8 8 8 7 7 7 7 7 7 7 7 7 6 6 7 7 7 7 7 7 7 6 6 6 6 7 7 7 7 7 6 6 6 6 6 6 7 7 7 7 6 6 6 5 5 5 5 5 5 5 4 4 4 3 3 3 3 3 3 3 3 3 3 3 2 2
6 6 6 6 7 7 7 7 7 7 8 7 7 7 8 8 8 8 8 8 8 8 8 8 7 7 7 7 7 7 7 6 7 7 6 7 7 7 7 7 7 7 7 6 6 6 6 7 7 8 8 8 7 7 7 6 7 7 6 6 6 6 6 6 6 5 5 5 5 5 5 4 4 4 4 3 3 3 3 3 3 3 3 3 3 2 2 2
Height
3117 3117 3117 3117 3117 3117 3116 3117 3118 3118 3118 3118 3118 3118 3119 3120 3119 3118 3117 3116 3116 3115 3115 3114 3114 3114 3113 3113 3112 3112 3111 3111 3110 3109 3109 3109 3109 3108 3109 3109 3110 3110 3111 3112 3112 3113 3117 3119 3120 3122 3124 3128 3128 3130 3132 3132 3134 3135 3135 3135 3134 3132 3131 3132 3132 3128 3128 3131 3132 3132 3134 3135 3136 3138 3139 3140 3143 3144 3142 3141 3142 3143 3145 3146 3146 3147 3148 3148
3117 3117 3118 3118 3117 3117 3117 3118 3119 3118 3118 3119 3120 3121 3122 3121 3120 3118 3117 3117 3117 3116 3116 3115 3115 3115 3115 3114 3114 3113 3113 3112 3111 3109 3111 3112 3111 3110 3110 3110 3111 3112 3112 3114 3113 3116 3122 3122 3123 3124 3125 3128 3129 3130 3132 3132 3133 3134 3135 3134 3134 3133 3132 3133 3132 3129 3129 3132 3134 3135 3136 3137 3138 3140 3141 3143 3145 3142 3141 3141 3143 3145 3146 3146 3147 3147 3147 3148
3117 3118 3118 3118 3117 3118 3119 3119 3118 3119 3120 3121 3123 3123 3123 3121 3120 3119 3118 3118 3118 3117 3117 3117 3117 3117 3116 3116 3115 3115 3114 3113 3113 3113 3115 3114 3113 3112 3112 3112 3112 3113 3113 3115 3114 3118 3125 3125 3124 3125 3127 3129 3129 3130 3132 3132 3133 3134 3134 3134 3134 3134 3134 3133 3131 3129 3129 3132 3134 3136 3138 3138 3140 3141 3142 3144 3144 3142 3142 3144 3145 3146 3146 3147 3147 3148 3148 3149
3117 3118 3118 3118 3118 3119 3119 3119 3119 3121 3123 3124 3125 3125 3123 3121 3120 3119 3119 3119 3119 3119 3118 3118 3118 3118 3118 3118 3117 3117 3116 3115 3117 3118 3117 3116 3115 3114 3114 3114 3114 3115 3115 3116 3115 3120 3126 3126 3126 3126 3128 3130 3130 3131 3131 3132 3133 3134 3134 3135 3135 3134 3134 3132 3132 3132 3131 3134 3136 3137 3139 3140 3141 3141 3143 3145 3144 3144 3144 3146 3147 3147 3147 3148 3149 3149 3150 3151
3118 3118 3118 3119 3119 3119 3119 3120 3122 3124 3125 3126 3126 3125 3123 3121 3121 3121 3120 3120 3120 3120 3120 3120 3120 3120 3120 3119 3119 3119 3118 3119 3120 3120 3119 3118 3117 3117 3116 3116 3116 3117 3118 3117 3117 3123 3127 3127 3128 3128 3129 3130 3131 3131 3131 3132 3133 3134 3135 3136 3134 3134 3135 3132 3132 3133 3134 3137 3138 3137 3139 3140 3141 3141 3143 3145 3145 3145 3146 3147 3148 3148 3149 3149 3150 3151 3151 3152
3118 3118 3119 3119 3119 3119 3120 3122 3125 3126 3127 3127 3126 3125 3123 3122 3122 3122 3122 3122 3122 3121 3121 3121 3121 3122 3121 3121 3121 3120 3120 3121 3123 3122 3122 3121 3120 3119 3119 3119 3119 3120 3119 3119 3121 3126 3128 3129 3129 3128 3129 3130 3131 3131 3131 3133 3133 3133 3135 3135 3135 3135 3134 3131 3131 3134 3136 3138 3138 3137 3138 3141 3142 3142 3143 3145 3146 3148 3149 3149 3150 3150 3150 3150 3151 3152 3152 3152
3118 3118 3119 3119 3119 3120 3123 3125 3127 3128 3128 3128 3126 3125 3124 3124 3124 3124 3123 3123 3123 3123 3123 3123 3123 3123 3123 3123 3123 3123 3123 3124 3125 3125 3124 3123 3122 3122 3122 3122 3122 3123 3120 3120 3124 3128 3129 3130 3129 3129 3130 3130 3130 3131 3132 3134 3133 3133 3134 3135 3137 3135 3130 3130 3132 3136 3138 3139 3139 3138 3139 3142 3142 3144 3145 3146 3149 3152 3152 3152 3151 3151 3151 3152 3152 3153 3153 3154
3118 3119 3119 3120 3121 3123 3125 3127 3129 3129 3129 3128 3126 3125 3125 3125 3125 3125 3125 3125 3125 3125 3125 3125 3125 3124 3125 3124 3124 3126 3128 3127 3127 3127 3125 3125 3125 3124 3124 3123 3123 3123 3121 3122 3128 3131 3130 3130 3130 3130 3130 3130 3130 3132 3133 3133 3133 3133 3133 3135 3137 3134 3130 3132 3135 3138 3140 3140 3141 3139 3140 3143 3143 3145 3148 3149 3152 3153 3154 3153 3152 3152 3152 3153 3154 3154 3154 3155
3118 3119 3120 3121 3123 3125 3127 3129 3130 3130 3129 3128 3127 3127 3127 3127 3127 3127 3127 3127 3126 3127 3127 3126 3127 3126 3127 3127 3126 3129 3130 3128 3128 3128 3127 3127 3126 3125 3126 3125 3123 3122 3123 3127 3131 3131 3130 3130 3131 3131 3130 3131 3131 3133 3133 3133 3133 3133 3133 3135 3135 3134 3136 3137 3137 3139 3142 3143 3142 3139 3140 3143 3145 3147 3150 3153 3155 3154 3155 3154 3153 3154 3154 3154 3155 3155 3155 3156
3119 3120 3121 3123 3125 3127 3129 3131 3131 3130 3129 3129 3129 3129 3129 3129 3129 3128 3128 3128 3128 3128 3128 3128 3128 3128 3129 3129 3129 3132 3131 3129 3129 3129 3128 3128 3128 3127 3127 3126 3124 3125 3127 3131 3132 3131 3131 3132 3131 3131 3131 3132 3132 3133 3134 3132 3133 3134 3134 3135 3134 3136 3139 3140 3139 3139 3142 3145 3144 3141 3141 3143 3146 3148 3151 3156 3157 3155 3156 3156 3155 3156 3155 3155 3155 3156 3157 3157
3120 3121 3123 3125 3127 3129 3131 3131 3131 3130 3130 3130 3130 3130 3130 3130 3130 3130 3130 3130 3130 3130 3130 3130 3130 3131 3131 3131 3131 3133 3131 3130 3131 3130 3130 3130 3129 3129 3128 3127 3127 3129 3130 3131 3133 3132 3132 3133 3132 3131 3132 3132 3133 3133 3133 3133 3134 3134 3135 3135 3135 3137 3139 3140 3140 3139 3142 3145 3145 3143 3143 3145 3147 3150 3152 3156 3158 3157 3158 3158 3157 3157 3156 3156 3156 3156 3157 3158
3121 3123 3124 3127 3129 3131 3132 3131 3131 3131 3131 3132 3132 3132 3132 3132 3132 3132 3132 3132 3132 3132 3132 3132 3133 3133 3133 3133 3134 3134 3132 3132 3132 3132 3132 3131 3131 3130 3130 3130 3130 3130 3130 3131 3133 3133 3133 3133 3132 3133 3133 3133 3133 3134 3133 3134 3134 3134 3136 3136 3137 3139 3140 3141 3141 3141 3142 3144 3144 3144 3145 3147 3149 3151 3153 3155 3157 3158 3159 3159 3159 3158 3158 3158 3157 3157 3157 3158
3123 3124 3126 3129 3131 3132 3132 3131 3131 3132 3133 3134 3134 3134 3134 3134 3133 3133 3134 3134 3134 3134 3134 3134 3134 3134 3134 3135 3135 3134 3133 3133 3133 3133 3133 3132 3132 3132 3132 3132 3132 3132 3132 3132 3133 3133 3133 3133 3132 3133 3134 3134 3134 3134 3134 3134 3135 3135 3136 3137 3138 3140 3141 3142 3142 3141 3142 3143 3145 3144 3145 3149 3151 3152 3154 3156 3157 3158 3159 3160 3159 3159 3158 3158 3158 3159 3159 3159
3124 3126 3128 3130 3132 3132 3132 3132 3133 3134 3134 3135 3135 3136 3136 3135 3135 3135 3135 3136 3136 3136 3136 3136 3136 3136 3136 3137 3136 3135 3135 3134 3134 3134 3134 3134 3134 3134 3135 3135 3134 3134 3134 3133 3134 3134 3134 3133 3133 3134 3134 3134 3134 3135 3135 3135 3135 3136 3137 3138 3138 3140 3142 3143 3143 3142 3142 3143 3146 3145 3146 3150 3152 3154 3156 3156 3157 3158 3159 3160 3160 3159 3158 3159 3159 3160 3161 3161
3126 3128 3130 3131 3132 3132 3132 3133 3134 3135 3136 3136 3137 3137 3137 3137 3137 3137 3137 3137 3137 3137 3137 3137 3137 3137 3138 3139 3138 3137 3137 3135 3135 3136 3136 3135 3135 3136 3138 3137 3136 3136 3135 3135 3135 3135 3135 3135 3135 3135 3135 3135 3135 3136 3136 3136 3136 3136 3137 3137 3137 3139 3143 3143 3144 3144 3143 3144 3148 3149 3149 3152 3155 3156 3157 3156 3156 3157 3158 3159 3160 3160 3159 3159 3159 3158 3160 3160
3128 3130 3131 3132 3133 3133 3134 3134 3135 3136 3137 3138 3138 3138 3138 3138 3138 3138 3138 3139 3139 3139 3139 3138 3138 3138 3139 3141 3140 3138 3137 3136 3137 3137 3137 3136 3136 3137 3138 3138 3137 3137 3136 3136 3137 3136 3136 3136 3136 3136 3136 3136 3136 3136 3136 3136 3136 3136 3136 3137 3137 3139 3142 3143 3143 3144 3144 3146 3150 3151 3151 3154 3157 3158 3157 3157 3158 3159 3159 3160 3161 3160 3160 3160 3159 3159 3159 3159
3130 3131 3132 3133 3134 3134 3135 3136 3137 3137 3138 3139 3140 3140 3140 3140 3140 3140 3140 3140 3141 3141 3141 3140 3140 3139 3139 3141 3141 3139 3139 3139 3139 3139 3138 3137 3137 3137 3137 3138 3139 3139 3138 3138 3137 3137 3138 3138 3137 3137 3136 3136 3136 3136 3137 3137 3137 3137 3137 3138 3138 3139 3142 3143 3143 3144 3145 3147 3149 3151 3152 3154 3157 3158 3158 3160 3162 3162 3162 3162 3161 3160 3160 3161 3161 3160 3160 3161
3131 3132 3133 3134 3134 3135 3136 3137 3138 3138 3139 3140 3141 3141 3141 3141 3141 3141 3141 3142 3142 3142 3142 3141 3141 3140 3140 3142 3141 3141 3142 3141 3140 3140 3139 3139 3138 3137 3137 3138 3139 3140 3139 3139 3138 3138 3138 3138 3137 3138 3137 3137 3137 3137 3138 3141 3140 3138 3139 3139 3140 3141 3142 3142 3143 3145 3147 3149 3149 3150 3152 3154 3156 3157 3158 3160 3161 3161 3163 3163 3161 3161 3161 3161 3162 3161 3161 3162
3132 3133 3134 3135 3135 3136 3137 3138 3139 3139 3140 3141 3142 3142 3142 3142 3142 3142 3143 3143 3142 3142 3143 3142 3141 3142 3142 3143 3143 3142 3142 3141 3140 3140 3140 3140 3139 3138 3138 3139 3139 3140 3140 3139 3139 3138 3138 3138 3138 3138 3138 3138 3138 3137 3138 3140 3140 3139 3139 3140 3142 3142 3141 3142 3144 3145 3147 3150 3149 3149 3152 3154 3155 3157 3158 3158 3158 3158 3160 3161 3160 3161 3161 3162 3162 3162 3162 3162
3133 3134 3135 3135 3136 3137 3138 3139 3139 3140 3141 3142 3143 3143 3143 3144 3144 3144 3144 3144 3143 3145 3145 3143 3143 3143 3143 3144 3143 3142 3142 3141 3141 3142 3142 3141 3140 3140 3140 3140 3140 3140 3139 3139 3139 3138 3137 3138 3138 3137 3137 3137 3137 3138 3138 3138 3138 3139 3139 3140 3142 3142 3142 3143 3146 3147 3148 3150 3150 3149 3152 3154 3155 3157 3158 3157 3156 3156 3157 3158 3159 3160 3161 3162 3163 3163 3163 3162
3134 3135 3136 3136 3137 3138 3139 3140 3140 3141 3142 3143 3144 3144 3144 3145 3144 3145 3145 3145 3146 3146 3145 3144 3143 3144 3144 3144 3144 3142 3143 3143 3143 3143 3142 3140 3140 3141 3140 3140 3140 3139 3139 3139 3138 3139 3138 3137 3137 3137 3138 3138 3137 3138 3138 3138 3139 3139 3140 3140 3141 3142 3142 3145 3146 3147 3148 3149 3149 3151 3153 3155 3156 3157 3159 3158 3157 3157 3156 3157 3158 3159 3160 3161 3163 3163 3163 3163
3134 3135 3136 3137 3138 3139 3140 3140 3141 3142 3143 3144 3145 3145 3145 3144 3144 3145 3145 3146 3146 3145 3145 3145 3145 3145 3144 3144 3144 3143 3143 3144 3143 3143 3142 3140 3141 3141 3140 3140 3140 3139 3139 3139 3138 3139 3140 3138 3138 3138 3138 3137 3137 3138 3137 3137 3139 3140 3141 3141 3142 3143 3144 3146 3148 3148 3149 3149 3150 3152 3153 3154 3156 3157 3158 3159 3159 3158 3157 3157 3158 3158 3159 3161 3162 3163 3163 3163
3135 3136 3137 3138 3139 3140 3141 3142 3142 3144 3144 3145 3146 3145 3145 3145 3145 3145 3145 3146 3146 3146 3146 3146 3146 3146 3144 3145 3145 3142 3142 3143 3143 3143 3142 3140 3141 3141 3140 3140 3140 3139 3139 3139 3138 3139 3139 3138 3138 3138 3138 3137 3137 3138 3137 3138 3140 3140 3141 3141 3142 3143 3144 3146 3147 3147 3148 3149 3149 3151 3152 3155 3157 3157 3157 3158 3159 3158 3158 3158 3159 3159 3160 3160 3161 3163 3163 3162
3135 3137 3138 3139 3140 3141 3142 3142 3144 3144 3145 3147 3146 3145 3145 3146 3146 3146 3146 3145 3146 3146 3146 3145 3146 3146 3145 3145 3144 3141 3142 3143 3143 3143 3141 3140 3141 3140 3139 3140 3140 3140 3139 3139 3139 3138 3139 3139 3139 3138 3138 3138 3138 3138 3137 3138 3141 3141 3140 3141 3141 3142 3143 3145 3146 3146 3149 3149 3149 3151 3153 3156 3158 3158 3158 3157 3157 3158 3159 3159 3160 3160 3160 3161 3162 3163 3163 3162
3136 3137 3139 3140 3141 3142 3143 3144 3145 3146 3147 3148 3147 3146 3146 3146 3146 3147 3146 3146 3145 3145 3144 3145 3145 3145 3145 3144 3143 3143 3143 3143 3143 3142 3141 3141 3140 3139 3139 3140 3140 3140 3140 3139 3139 3139 3139 3140 3139 3138 3138 3139 3139 3139 3138 3138 3140 3141 3141 3142 3141 3141 3142 3144 3145 3147 3148 3149 3149 3150 3152 3156 3158 3158 3158 3158 3157 3158 3159 3159 3160 3160 3160 3161 3162 3163 3163 3162
3136 3138 3139 3140 3141 3142 3143 3145 3147 3148 3149 3149 3147 3147 3147 3147 3147 3147 3147 3146 3145 3145 3144 3145 3145 3145 3145 3144 3144 3145 3144 3144 3143 3142 3142 3141 3140 3140 3140 3140 3140 3140 3140 3140 3139 3140 3141 3140 3140 3139 3139 3139 3139 3139 3139 3138 3140 3141 3142 3142 3141 3141 3142 3144 3145 3147 3148 3148 3149 3150 3151 3156 3159 3158 3158 3159 3158 3159 3159 3159 3160 3160 3161 3163 3163 3163 3163 3163
3137 3138 3139 3141 3142 3143 3143 3145 3147 3149 3150 3148 3147 3148 3148 3148 3148 3148 3148 3146 3145 3145 3145 3145 3145 3144 3145 3144 3144 3144 3144 3144 3143 3141 3142 3141 3141 3141 3140 3140 3140 3140 3141 3140 3140 3141 3141 3141 3140 3140 3139 3140 3140 3140 3140 3140 3140 3141 3141 3142 3142 3142 3143 3144 3146 3148 3148 3148 3150 3150 3151 3155 3159 3159 3159 3159 3159 3160 3160 3161 3161 3162 3163 3163 3164 3164 3164 3163
3137 3138 3140 3141 3142 3143 3144 3145 3146 3148 3149 3148 3148 3148 3148 3149 3150 3149 3149 3147 3145 3145 3145 3145 3145 3144 3145 3144 3143 3144 3144 3143 3143 3142 3141 3141 3140 3141 3141 3140 3141 3141 3141 3140 3140 3141 3141 3141 3141 3141 3140 3141 3141 3142 3141 3140 3140 3141 3142 3143 3143 3143 3144 3146 3148 3149 3149 3149 3150 3151 3151 3154 3159 3160 3160 3160 3161 3161 3161 3162 3162 3163 3163 3164 3165 3165 3165 3163
3137 3138 3140 3141 3142 3143 3145 3145 3145 3146 3147 3148 3148 3149 3149 3150 3150 3149 3149 3147 3145 3145 3145 3145 3145 3145 3145 3144 3143 3145 3145 3144 3143 3143 3142 3142 3141 3141 3142 3142 3142 3143 3142 3140 3141 3142 3141 3141 3142 3142 3142 3142 3142 3143 3142 3142 3142 3142 3144 3144 3143 3145 3147 3148 3149 3150 3150 3150 3150 3151 3152 3154 3157 3159 3160 3161 3161 3161 3161 3162 3163 3164 3165 3166 3166 3165 3165 3164
3137 3139 3140 3141 3142 3144 3145 3146 3146 3147 3147 3148 3149 3149 3150 3150 3150 3149 3149 3147 3145 3145 3145 3145 3145 3145 3145 3144 3144 3145 3145 3145 3144 3143 3143 3143 3142 3142 3143 3142 3142 3143 3143 3142 3142 3142 3142 3141 3142 3143 3143 3144 3144 3144 3144 3144 3143 3144 3145 3145 3145 3147 3149 3150 3151 3151 3151 3152 3150 3151 3152 3153 3156 3158 3160 3160 3161 3161 3161 3162 3163 3165 3166 3166 3167 3167 3166 3166
3137 3138 3140 3141 3143 3144 3145 3146 3147 3147 3148 3149 3149 3150 3150 3150 3151 3150 3147 3145 3145 3145 3145 3146 3146 3146 3145 3145 3145 3145 3145 3145 3144 3143 3143 3143 3143 3143 3143 3143 3143 3143 3144 3144 3143 3143 3143 3143 3143 3143 3143 3144 3144 3145 3145 3145 3145 3146 3147 3147 3148 3149 3150 3151 3152 3152 3153 3152 3151 3152 3153 3153 3155 3157 3159 3160 3161 3161 3161 3162 3164 3165 3167 3167 3168 3168 3167 3166
3137 3138 3140 3141 3142 3144 3144 3144 3145 3147 3148 3149 3150 3150 3150 3151 3151 3149 3145 3144 3145 3146 3145 3146 3146 3146 3146 3146 3146 3146 3146 3145 3145 3144 3144 3144 3144 3144 3144 3144 3144 3144 3144 3143 3143 3143 3145 3145 3144 3144 3144 3144 3145 3145 3146 3147 3147 3147 3147 3147 3149 3152 3152 3153 3153 3153 3153 3152 3150 3152 3153 3153 3155 3156 3158 3159 3160 3161 3162 3163 3164 3166 3167 3167 3167 3167 3167 3166
3137 3138 3140 3141 3142 3143 3144 3145 3146 3148 3149 3149 3150 3150 3150 3151 3150 3147 3145 3145 3145 3146 3146 3146 3147 3147 3147 3146 3145 3146 3146 3146 3146 3145 3145 3145 3145 3145 3145 3145 3145 3145 3144 3143 3142 3143 3144 3145 3145 3145 3145 3145 3145 3146 3146 3147 3148 3147 3147 3147 3149 3151 3151 3152 3153 3152 3153 3151 3150 3152 3153 3154 3156 3157 3157 3159 3160 3161 3162 3163 3164 3166 3166 3167 3166 3166 3166 3166
3137 3138 3140 3141 3142 3143 3145 3146 3147 3148 3149 3150 3150 3150 3150 3151 3148 3145 3146 3146 3146 3147 3146 3147 3147 3147 3147 3146 3146 3146 3147 3146 3147 3146 3146 3146 3146 3146 3146 3147 3146 3146 3145 3144 3143 3144 3143 3144 3145 3145 3145 3145 3146 3146 3146 3147 3147 3147 3147 3146 3147 3147 3147 3149 3151 3150 3150 3150 3150 3152 3153 3154 3156 3157 3158 3159 3160 3161 3162 3163 3164 3165 3165 3166 3166 3166 3166 3165
3137 3139 3140 3141 3142 3144 3145 3146 3147 3149 3149 3149 3150 3150 3150 3150 3148 3146 3147 3146 3147 3148 3147 3147 3147 3147 3147 3147 3147 3147 3147 3147 3147 3147 3147 3147 3147 3148 3148 3148 3147 3147 3146 3145 3145 3144 3143 3144 3146 3145 3145 3146 3146 3146 3147 3146 3145 3146 3146 3146 3146 3146 3145 3147 3148 3148 3147 3147 3149 3151 3153 3155 3157 3157 3158 3160 3161 3161 3162 3164 3164 3164 3164 3165 3166 3165 3164 3162
3138 3139 3140 3141 3143 3144 3146 3147 3148 3149 3149 3149 3150 3150 3149 3149 3149 3148 3148 3147 3148 3148 3148 3147 3147 3146 3146 3146 3147 3147 3147 3147 3147 3147 3147 3148 3148 3149 3149 3148 3147 3148 3148 3147 3146 3145 3144 3145 3147 3146 3145 3145 3145 3146 3147 3146 3145 3146 3146 3145 3145 3145 3145 3146 3146 3147 3146 3146 3149 3151 3153 3156 3157 3158 3160 3160 3161 3162 3162 3164 3164 3163 3163 3164 3164 3163 3161 3160
3138 3139 3140 3142 3143 3145 3146 3147 3148 3149 3149 3149 3150 3150 3150 3149 3149 3148 3148 3148 3148 3148 3148 3148 3148 3148 3147 3147 3148 3148 3147 3147 3147 3147 3148 3148 3148 3149 3150 3149 3148 3148 3148 3147 3147 3147 3146 3146 3147 3147 3147 3146 3146 3146 3147 3147 3146 3146 3145 3145 3145 3145 3145 3145 3145 3145 3144 3145 3148 3149 3152 3155 3156 3157 3159 3160 3161 3162 3163 3164 3164 3162 3162 3163 3163 3162 3161 3159
3138 3139 3141 3142 3143 3145 3146 3147 3148 3149 3149 3150 3150 3150 3150 3149 3148 3148 3149 3149 3149 3149 3149 3148 3148 3149 3148 3148 3148 3149 3147 3146 3147 3147 3148 3149 3149 3149 3150 3150 3149 3148 3149 3148 3148 3148 3147 3147 3147 3148 3148 3147 3147 3146 3146 3147 3147 3146 3146 3146 3146 3146 3146 3145 3144 3144 3143 3144 3146 3148 3151 3155 3156 3156 3158 3159 3160 3161 3162 3164 3163 3162 3163 3163 3163 3161 3160 3159
3138 3140 3142 3143 3144 3145 3146 3147 3148 3149 3149 3150 3150 3150 3150 3150 3149 3148 3149 3149 3150 3150 3149 3150 3150 3149 3149 3149 3149 3149 3148 3147 3148 3148 3148 3149 3149 3150 3150 3150 3150 3150 3149 3149 3149 3149 3148 3147 3147 3148 3148 3148 3148 3148 3147 3148 3148 3147 3147 3147 3147 3148 3147 3146 3145 3145 3144 3143 3144 3147 3151 3155 3156 3157 3158 3159 3160 3160 3162 3163 3163 3163 3163 3163 3164 3162 3160 3159
3139 3141 3142 3143 3144 3145 3146 3147 3149 3149 3149 3150 3150 3150 3150 3150 3149 3148 3148 3149 3150 3150 3150 3151 3151 3151 3151 3150 3150 3150 3150 3149 3149 3150 3150 3150 3150 3150 3150 3150 3150 3151 3150 3150 3150 3149 3148 3148 3147 3148 3148 3148 3149 3149 3149 3150 3150 3149 3148 3148 3149 3148 3148 3147 3146 3145 3145 3144 3144 3146 3151 3156 3157 3157 3158 3159 3159 3160 3161 3162 3162 3162 3163 3163 3163 3162 3160 3159
3139 3142 3143 3143 3144 3145 3146 3147 3148 3149 3150 3151 3151 3150 3150 3150 3150 3149 3148 3149 3150 3151 3151 3151 3152 3151 3151 3151 3151 3151 3151 3151 3151 3151 3151 3151 3151 3150 3150 3150 3150 3151 3151 3151 3151 3150 3149 3148 3148 3148 3149 3150 3150 3150 3149 3150 3151 3151 3151 3151 3150 3150 3149 3148 3146 3146 3146 3146 3145 3147 3153 3158 3158 3158 3159 3159 3159 3160 3160 3161 3161 3162 3162 3162 3162 3160 3159 3159
3139 3142 3142 3142 3144 3145 3146 3147 3148 3150 3151 3151 3150 3150 3150 3150 3151 3150 3150 3151 3152 3152 3152 3152 3152 3152 3152 3153 3152 3152 3152 3152 3152 3152 3152 3152 3152 3151 3150 3150 3150 3151 3151 3151 3151 3151 3150 3149 3149 3150 3150 3151 3150 3150 3149 3150 3152 3152 3152 3152 3152 3151 3152 3150 3150 3149 3147 3147 3148 3148 3152 3157 3158 3159 3159 3159 3159 3160 3160 3160 3161 3161 3162 3161 3161 3159 3158 3158
3139 3142 3142 3142 3143 3144 3146 3147 3149 3150 3150 3150 3150 3149 3150 3151 3152 3152 3152 3153 3153 3153 3153 3153 3153 3153 3153 3153 3153 3153 3153 3153 3153 3154 3154 3153 3152 3151 3151 3151 3151 3151 3151 3151 3151 3152 3151 3151 3150 3150 3151 3151 3151 3150 3150 3151 3152 3153 3153 3154 3153 3153 3153 3153 3153 3152 3150 3150 3150 3148 3153 3158 3159 3158 3159 3159 3159 3160 3160 3160 3160 3161 3161 3160 3160 3160 3158 3157
3140 3142 3141 3141 3143 3144 3146 3147 3149 3150 3150 3150 3150 3150 3151 3152 3153 3153 3154 3154 3154 3154 3154 3154 3154 3154 3154 3154 3154 3154 3154 3154 3154 3154 3154 3154 3153 3152 3152 3151 3151 3151 3150 3151 3152 3152 3153 3152 3151 3150 3150 3151 3152 3151 3152 3153 3154 3155 3155 3155 3155 3155 3154 3154 3153 3152 3151 3152 3152 3151 3155 3158 3158 3158 3158 3159 3159 3159 3159 3160 3160 3160 3160 3159 3160 3160 3159 3158
3141 3143 3141 3141 3143 3144 3145 3146 3148 3150 3149 3149 3150 3150 3151 3151 3152 3153 3154 3153 3153 3154 3154 3155 3155 3155 3155 3155 3156 3155 3155 3155 3155 3155 3155 3155 3154 3154 3153 3152 3151 3151 3151 3152 3153 3153 3153 3154 3154 3153 3152 3152 3153 3153 3154 3155 3155 3155 3156 3156 3156 3155 3155 3155 3153 3152 3152 3153 3154 3155 3156 3158 3158 3158 3158 3159 3160 3160 3160 3160 3159 3160 3160 3159 3159 3159 3159 3158
3140 3143 3142 3142 3143 3144 3145 3146 3147 3148 3149 3149 3150 3150 3151 3152 3152 3153 3154 3154 3154 3154 3154 3156 3156 3156 3156 3156 3157 3157 3156 3156 3156 3156 3156 3156 3156 3155 3155 3154 3152 3152 3152 3153 3153 3153 3154 3155 3156 3156 3155 3155 3156 3156 3156 3156 3156 3156 3156 3157 3157 3156 3156 3156 3154 3154 3155 3155 3155 3157 3158 3158 3159 3159 3159 3159 3160 3160 3160 3160 3159 3159 3159 3159 3159 3158 3158 3157
3140 3142 3142 3143 3144 3145 3146 3147 3148 3148 3148 3149 3150 3150 3152 3153 3153 3153 3154 3155 3155 3154 3155 3155 3156 3157 3157 3157 3157 3158 3158 3157 3157 3157 3157 3158 3157 3156 3155 3155 3154 3154 3154 3154 3154 3154 3155 3156 3156 3156 3157 3156 3157 3157 3156 3156 3157 3157 3158 3158 3158 3157 3157 3157 3157 3157 3157 3156 3157 3159 3159 3159 3159 3159 3160 3160 3160 3160 3160 3160 3159 3159 3158 3158 3158 3157 3157 3157
3140 3142 3143 3143 3145 3146 3146 3147 3148 3148 3148 3149 3150 3151 3152 3153 3153 3154 3155 3156 3156 3155 3156 3156 3157 3158 3158 3158 3158 3158 3159 3158 3158 3158 3158 3158 3158 3157 3157 3157 3156 3155 3155 3155 3156 3156 3156 3156 3156 3157 3157 3157 3157 3157 3157 3157 3157 3158 3158 3158 3158 3158 3158 3158 3158 3158 3158 3158 3159 3160 3160 3160 3160 3159 3159 3159 3159 3160 3159 3159 3159 3158 3158 3158 3157 3156 3156 3156
3140 3142 3143 3143 3144 3146 3146 3147 3147 3148 3148 3149 3150 3151 3152 3153 3154 3155 3156 3156 3157 3157 3157 3157 3158 3158 3158 3159 3159 3159 3159 3159 3159 3159 3158 3158 3159 3159 3159 3159 3158 3158 3157 3157 3157 3157 3157 3157 3157 3157 3158 3157 3157 3157 3157 3157 3158 3158 3158 3159 3159 3159 3159 3159 3159 3159 3159 3160 3160 3160 3160 3160 3160 3159 3159 3159 3158 3159 3158 3158 3158 3158 3157 3157 3157 3156 3156 3156
3138 3141 3142 3143 3144 3144 3145 3145 3146 3148 3148 3149 3149 3151 3152 3153 3155 3156 3156 3156 3157 3158 3158 3158 3159 3158 3158 3159 3159 3159 3159 3159 3159 3159 3159 3159 3159 3160 3160 3160 3160 3159 3158 3158 3158 3158 3157 3157 3157 3157 3157 3157 3157 3157 3157 3158 3158 3158 3158 3158 3159 3159 3160 3160 3159 3159 3160 3160 3160 3160 3160 3160 3160 3159 3158 3158 3158 3157 3157 3157 3157 3157 3157 3157 3157 3157 3156 3156
3137 3139 3141 3143 3144 3144 3145 3146 3147 3148 3149 3149 3150 3151 3152 3154 3155 3156 3157 3157 3158 3158 3159 3159 3159 3158 3158 3159 3159 3159 3159 3160 3160 3160 3159 3159 3160 3160 3160 3161 3160 3160 3159 3159 3159 3158 3158 3158 3158 3157 3156 3156 3157 3157 3158 3158 3158 3158 3158 3158 3159 3159 3159 3159 3160 3160 3160 3160 3160 3160 3160 3160 3159 3159 3158 3158 3158 3157 3157 3157 3156 3156 3156 3157 3157 3156 3156 3155
3137 3139 3141 3143 3144 3145 3145 3146 3147 3149 3149 3149 3150 3151 3152 3154 3155 3155 3156 3157 3158 3159 3159 3159 3158 3159 3159 3159 3159 3159 3159 3159 3160 3160 3160 3160 3160 3160 3160 3160 3160 3160 3161 3160 3159 3159 3159 3158 3158 3158 3157 3156 3157 3158 3158 3157 3157 3158 3158 3158 3158 3159 3159 3159 3160 3160 3159 3159 3159 3159 3159 3159 3159 3158 3158 3158 3157 3157 3156 3156 3155 3154 3154 3155 3155 3155 3155 3154
Wind_Speed
18 18 18 18 17 17 16 15 14 14 13 14 14 13 12 10 10 10 12 12 13 13 13 13 13 13 12 13 12 12 13 12 12 14 13 12 10 10 9 9 10 11 14 12 14 14 9 7 7 10 13 12 16 13 15 17 16 14 12 15 15 13 13 12 4 6 11 8 4 6 11 9 7 5 2 3 4 5 2 1 2 3 5 6 9 11 10 7
19 18 18 18 17 17 16 15 14 14 14 14 13 11 10 10 11 11 12 13 13 14 14 14 13 14 14 15 15 16 16 16 17 15 11 11 11 11 11 11 13 16 18 18 20 14 3 1 6 11 11 12 13 12 15 17 16 15 13 12 12 10 10 8 1 7 11 10 4 5 12 14 8 4 3 3 8 10 6 6 8 7 6 8 13 14 11 6
19 18 18 18 18 17 15 14 14 14 14 13 11 10 10 10 11 12 12 13 13 13 14 15 15 16 17 18 21 20 21 21 19 13 9 11 13 13 12 13 15 17 18 20 22 11 1 3 9 13 10 11 11 11 14 16 15 14 14 7 4 8 8 4 5 6 5 8 6 6 8 12 9 3 5 6 8 11 10 11 12 12 12 13 15 13 11 10
20 19 19 19 17 16 15 15 14 13 13 11 10 10 11 12 12 12 12 13 13 14 14 15 16 17 18 20 22 21 22 22 18 15 15 16 17 15 13 12 12 14 18 23 23 12 5 7 10 11 9 10 9 10 14 15 13 13 11 5 2 7 8 2 7 8 6 6 7 8 9 11 11 6 6 6 6 10 9 10 13 14 17 16 15 12 10 10
20 20 20 18 17 16 15 15 13 12 11 10 10 11 12 13 12 13 13 14 14 15 14 15 14 14 16 17 18 18 19 18 16 17 19 20 21 20 17 16 15 18 22 25 22 12 7 7 6 6 9 10 8 11 14 13 11 10 5 4 5 6 7 5 9 13 9 5 8 9 9 10 11 11 8 4 5 10 11 12 15 16 17 16 15 13 10 8
21 20 19 17 16 16 15 14 12 12 11 10 11 12 14 13 13 13 15 16 17 17 17 17 17 17 18 17 17 18 18 14 13 16 19 21 21 22 23 23 24 25 26 26 18 7 5 4 5 6 9 8 10 13 13 12 11 9 4 5 7 2 5 11 17 18 8 4 9 9 9 9 8 10 10 7 7 13 15 15 16 17 17 17 15 14 12 10
22 20 18 17 17 16 14 12 11 11 10 10 12 14 15 15 15 15 17 18 19 20 21 22 22 21 22 22 21 20 17 12 11 15 19 19 19 20 21 22 22 23 25 22 9 1 1 3 4 5 10 9 11 13 12 13 10 8 7 7 6 4 12 18 20 16 5 4 11 9 10 12 9 10 11 10 11 16 18 17 17 18 18 17 15 13 12 11
21 19 18 18 17 15 13 12 11 9 9 10 13 15 16 16 16 17 19 20 22 23 25 26 25 23 23 22 21 17 12 10 12 16 18 17 17 18 18 19 22 24 26 18 6 2 4 6 4 6 6 5 10 12 11 13 9 7 7 10 8 10 17 15 9 8 7 7 11 10 10 12 11 12 12 13 17 18 19 19 18 17 16 14 12 12 12 11
21 20 19 17 16 14 12 11 10 8 9 11 13 14 15 16 17 18 21 23 24 25 25 25 23 21 20 19 18 11 7 11 14 16 16 14 15 16 15 18 21 22 21 12 5 7 4 2 4 4 1 3 10 11 10 11 7 5 7 11 11 13 16 12 4 6 8 9 10 11 11 12 10 10 12 14 19 22 22 20 18 17 15 12 11 12 11 10
21 20 18 17 15 13 12 11 8 7 9 11 12 14 15 17 18 19 22 22 23 23 23 22 19 17 15 16 15 7 8 13 15 15 14 13 13 13 13 14 14 14 11 6 5 6 3 3 2 1 3 5 9 10 11 8 3 7 9 12 13 13 13 15 13 9 9 9 9 9 12 11 6 7 10 13 19 23 22 19 17 17 15 13 12 13 12 10
20 19 17 16 14 13 12 9 8 8 9 11 12 14 16 17 18 19 20 20 21 21 22 20 19 18 15 16 13 6 9 11 11 11 11 12 11 11 13 11 9 7 6 7 5 3 4 4 5 4 4 6 8 8 8 5 6 11 11 12 13 13 14 13 12 8 6 9 8 7 11 10 5 8 11 15 19 20 19 17 15 15 15 13 13 13 12 11
20 18 17 15 14 13 11 8 8 8 9 10 11 13 15 16 18 18 19 19 20 20 20 20 19 18 16 15 10 6 10 8 6 7 9 11 11 12 14 10 7 5 5 7 5 3 3 4 3 1 0 5 5 4 4 7 9 10 10 12 13 14 13 9 10 6 2 7 6 4 9 12 7 10 13 14 17 15 14 16 15 14 14 14 13 11 11 11
19 18 16 15 14 12 10 9 8 8 9 9 10 12 13 16 17 18 20 20 20 20 20 19 18 17 16 13 9 8 10 7 6 8 9 11 11 11 11 8 7 6 5 5 5 1 2 1 6 4 2 3 4 1 4 8 8 9 11 11 11 10 9 10 10 5 1 2 3 1 6 11 10 15 16 14 16 13 12 14 15 13 12 13 12 11 10 10
18 17 16 15 13 11 9 9 9 8 8 8 9 11 13 16 18 19 21 20 20 20 18 18 16 17 16 12 11 12 10 8 8 9 10 10 10 8 7 6 6 6 4 4 4 2 1 5 6 2 3 2 3 4 4 7 7 9 11 11 10 9 8 10 10 6 3 4 5 4 6 9 12 17 15 14 16 15 13 14 14 12 10 10 10 10 11 11
17 17 16 14 11 10 9 9 9 8 8 9 9 12 15 17 18 19 18 18 18 16 15 13 11 12 10 8 11 12 12 11 8 5 4 4 4 5 4 4 6 4 3 4 2 2 2 2 4 1 1 4 2 4 4 4 7 9 9 9 10 12 10 8 7 8 9 5 1 4 9 10 12 15 14 13 16 17 17 15 14 12 11 9 8 7 7 9
17 17 15 13 11 9 9 10 10 9 9 10 11 15 17 18 18 18 17 17 17 16 15 13 10 9 7 6 10 13 14 11 6 2 0 1 0 4 2 1 4 3 3 4 2 2 1 2 5 5 3 2 2 6 5 6 7 6 3 6 6 11 10 7 7 5 8 9 5 5 10 11 12 13 14 14 13 17 18 13 12 13 11 10 7 5 4 7
17 16 14 12 10 9 10 10 11 10 10 11 14 16 17 17 17 16 16 15 14 13 13 13 11 7 6 5 9 12 10 5 3 1 2 3 2 2 2 1 3 3 3 2 1 1 2 5 5 6 6 4 2 4 1 10 13 8 5 9 7 5 5 6 9 6 6 10 8 7 9 12 13 10 10 15 15 16 18 13 12 13 11 9 7 6 5 4
16 15 14 12 11 10 11 11 11 11 11 13 15 16 16 15 15 15 13 11 10 10 10 11 10 7 5 4 5 6 4 2 4 3 2 4 4 4 3 2 4 3 3 2 3 3 3 4 5 5 6 2 1 2 2 5 13 13 9 8 9 4 3 1 6 6 8 8 7 8 9 11 13 8 7 14 17 17 20 17 15 13 10 8 7 6 5 3
16 15 13 12 11 11 12 12 12 12 13 15 16 15 13 12 12 12 11 10 8 9 8 7 8 6 4 5 5 5 6 5 5 5 3 3 4 4 3 3 3 4 5 5 5 3 2 5 3 1 2 1 3 1 2 5 9 9 7 7 6 7 4 3 4 2 5 6 6 9 10 10 10 7 7 9 13 16 19 18 16 14 9 7 6 5 3 2
16 15 13 12 12 12 13 13 14 14 15 16 15 12 9 4 3 4 8 10 7 5 4 3 5 6 5 4 1 1 6 7 4 3 3 2 2 4 3 3 3 5 6 7 4 3 4 6 5 4 4 6 7 6 6 2 3 2 5 7 6 8 8 3 4 1 3 5 7 10 11 11 9 9 9 7 8 11 14 14 13 12 9 7 4 3 3 2
16 14 13 12 12 13 14 15 15 16 16 16 12 8 5 2 3 2 2 3 3 2 4 4 3 5 4 3 2 1 2 5 5 4 3 3 3 4 4 4 6 6 5 6 4 2 5 5 4 7 9 7 7 6 5 3 4 5 7 7 5 6 8 7 3 2 3 5 9 11 12 12 9 9 10 9 8 8 10 12 12 11 9 7 4 2 2 2
16 14 14 13 13 14 15 16 16 16 16 13 9 6 1 4 4 6 7 4 1 1 2 3 3 3 5 4 3 3 2 2 5 7 3 3 6 7 5 6 6 5 4 5 3 1 2 6 8 8 9 6 4 4 2 4 2 4 5 5 6 7 9 7 3 3 5 5 9 10 11 13 10 8 8 9 8 8 9 9 9 8 6 5 4 3 1 2
16 15 14 13 13 15 15 16 15 15 15 8 5 1 3 4 5 6 6 4 1 2 2 2 3 2 5 3 3 8 5 4 2 7 3 4 8 5 4 5 5 5 4 4 6 2 2 8 9 7 8 7 4 3 2 3 2 1 3 4 6 10 14 10 7 9 6 3 8 11 12 13 10 6 5 6 8 9 9 6 5 6 5 5 4 1 1 3
16 15 14 13 14 14 14 15 14 14 11 4 1 4 4 3 5 6 4 4 3 2 1 1 3 2 3 2 4 10 5 2 3 7 6 7 7 5 3 3 4 5 3 4 7 6 7 10 8 6 7 8 5 3 2 4 5 2 3 5 6 11 16 13 9 10 6 4 8 13 13 11 9 8 6 7 8 9 7 7 6 4 4 4 1 1 2 3
16 15 14 13 13 13 13 12 10 10 7 3 4 4 3 4 4 3 1 1 4 2 2 3 2 2 4 3 6 9 3 2 4 6 8 6 4 7 3 1 4 5 5 6 6 8 10 10 8 8 7 6 6 4 4 6 5 2 2 4 8 10 11 11 10 10 8 7 10 11 8 6 7 9 8 7 8 7 5 6 5 3 3 2 1 2 4 4
17 15 14 14 13 13 12 10 6 5 4 4 6 3 2 3 2 2 2 2 2 3 2 2 2 2 3 2 4 7 0 1 6 6 7 6 3 6 2 1 6 4 5 6 5 9 11 9 9 10 7 6 6 6 5 5 2 4 2 4 9 9 8 11 11 10 8 6 9 10 3 4 8 8 7 7 7 7 6 5 5 4 4 2 1 2 3 2
17 16 15 13 13 15 13 12 8 8 1 9 6 4 3 3 3 2 2 3 2 4 1 2 2 4 3 3 3 7 2 2 7 4 6 6 3 3 6 5 6 4 5 6 2 6 10 9 11 11 9 8 9 8 7 5 4 4 3 7 9 7 9 12 10 8 6 5 8 9 4 5 10 8 8 8 8 8 7 7 7 6 6 3 1 0 1 0
17 16 16 13 14 15 12 14 12 6 8 13 6 6 5 4 5 3 4 1 4 4 1 2 4 3 2 0 3 9 4 3 6 4 8 6 5 2 7 6 6 6 8 8 3 6 8 9 10 11 11 10 9 8 8 7 6 8 9 9 9 8 9 10 7 5 3 3 8 10 4 4 9 9 9 8 9 10 8 7 6 5 5 3 2 1 2 0
16 16 16 14 15 14 12 14 11 4 8 10 7 6 4 5 4 5 6 3 2 2 1 1 4 5 4 2 1 8 5 5 8 4 7 5 4 4 5 4 4 5 8 9 9 7 8 10 9 10 13 12 11 9 8 9 10 11 12 9 8 11 11 7 4 2 0 2 6 11 7 3 6 10 10 9 11 12 11 10 8 6 5 4 4 4 4 4
16 16 15 15 15 13 10 9 4 2 6 6 6 5 4 5 3 5 5 0 3 2 3 2 2 3 3 2 2 5 3 7 7 2 4 3 3 5 4 3 4 4 6 8 8 7 7 10 9 9 10 9 11 12 10 11 13 13 14 11 11 12 8 5 4 2 2 2 5 7 6 3 4 9 11 9 11 12 12 10 8 8 7 5 6 6 5 4
15 15 15 15 15 13 10 5 5 6 6 5 4 4 5 4 5 7 3 1 1 3 2 2 3 4 3 3 5 5 3 7 7 2 3 3 4 5 2 3 4 3 3 4 5 6 6 7 7 7 7 6 8 10 10 10 11 11 12 9 9 8 5 4 4 3 2 3 7 8 6 3 2 7 11 9 9 10 10 9 9 10 9 7 5 4 2 1
15 14 15 16 15 15 13 9 8 9 5 4 3 3 5 4 7 7 2 1 2 3 2 2 5 5 3 1 4 6 4 7 7 4 4 4 3 4 4 6 5 3 3 2 2 5 5 6 5 6 7 7 7 6 8 7 5 7 7 5 5 4 2 3 3 3 3 5 9 10 8 3 1 4 10 11 10 11 10 10 10 9 6 3 2 3 4 1
16 15 15 16 15 16 14 7 8 8 4 5 4 2 4 5 6 3 4 4 2 2 1 2 4 6 5 4 4 4 3 7 7 4 4 3 4 6 5 5 5 4 6 4 2 3 4 6 6 5 3 5 8 3 5 4 2 4 6 5 3 1 1 2 1 2 4 7 14 15 9 5 4 7 11 11 10 10 11 11 9 8 7 3 4 8 7 4
17 16 15 16 16 15 12 7 8 7 5 6 5 2 6 7 3 2 4 5 4 3 3 2 1 2 6 7 6 2 1 6 6 5 4 3 5 8 6 5 5 8 8 3 1 2 1 5 7 8 3 4 7 3 2 1 3 2 3 3 2 2 2 2 1 2 1 5 13 14 8 5 6 9 13 13 11 10 11 10 7 7 9 7 4 4 3 4
17 16 15 15 16 14 11 9 8 7 7 7 5 3 7 6 4 5 4 6 5 2 3 2 3 3 1 5 7 3 2 5 4 4 6 7 8 7 7 5 5 9 9 6 5 4 2 7 7 7 5 5 2 3 3 4 2 2 1 3 2 3 4 2 4 1 1 3 8 8 5 6 8 10 13 13 11 10 10 8 5 7 8 6 4 2 3 5
17 16 16 15 15 13 10 10 9 7 7 6 3 6 8 4 6 5 3 5 4 1 3 2 3 5 2 5 6 4 4 4 2 2 6 7 8 8 8 5 4 7 8 9 8 5 4 7 6 6 7 6 1 3 4 4 5 5 3 3 3 2 4 1 4 1 2 1 4 7 10 11 10 10 11 11 11 11 10 7 6 8 7 3 5 5 2 7
16 15 14 12 12 11 10 10 9 8 6 5 3 7 7 3 4 4 2 3 3 3 5 3 3 5 5 5 5 5 4 2 1 3 5 4 5 8 9 6 6 6 5 8 8 4 4 4 5 5 6 6 3 4 1 4 7 7 4 6 5 2 2 2 1 1 2 1 3 5 11 14 10 10 12 12 12 11 9 7 7 9 5 2 4 4 5 7
15 13 11 10 10 10 10 10 10 8 6 4 6 8 6 4 3 1 1 2 2 2 5 4 5 5 5 6 5 6 7 4 3 4 4 4 4 6 6 5 8 6 1 6 8 4 5 2 5 6 4 3 4 2 2 2 6 7 4 4 6 4 3 3 2 1 2 2 2 4 9 9 5 8 12 12 12 11 8 6 5 4 1 0 3 7 5 3
13 9 7 8 9 10 10 10 10 9 7 5 9 6 2 2 2 1 3 3 2 4 6 5 4 5 6 6 6 7 9 8 7 5 5 5 5 6 4 3 8 7 2 6 7 2 4 3 3 6 4 3 2 6 6 4 5 7 4 3 5 5 5 6 3 3 4 3 1 3 7 6 5 5 9 10 11 10 7 6 6 3 1 2 2 4 1 5
9 7 5 7 8 10 9 9 10 9 6 6 7 2 1 1 1 4 5 6 3 3 6 5 3 5 6 6 6 7 9 9 8 7 7 7 5 5 4 2 5 7 5 5 4 0 3 6 0 5 6 5 4 8 8 6 7 8 7 6 7 7 6 4 3 4 4 3 2 2 5 7 7 5 5 7 7 7 7 6 6 4 3 3 3 7 8 5
11 7 6 8 8 11 9 9 11 9 7 7 4 1 2 3 1 2 5 7 4 4 6 6 5 5 5 6 7 7 8 9 9 9 8 8 6 4 3 2 5 5 6 5 3 2 4 7 5 5 7 7 7 8 4 1 4 8 8 9 9 9 8 4 2 5 5 3 4 3 6 8 7 6 3 3 4 4 6 6 5 4 4 5 6 10 10 6
12 6 8 8 8 11 11 10 9 6 7 6 2 3 4 4 3 2 5 6 4 5 5 5 6 6 5 7 7 7 8 9 10 9 9 9 8 6 4 3 4 5 8 6 3 1 1 7 6 5 7 5 6 10 5 3 2 5 7 9 9 8 9 7 6 8 8 6 4 0 7 7 4 5 4 2 3 2 4 5 5 4 5 7 7 10 12 10
10 6 11 8 9 12 12 9 7 6 6 4 4 4 4 4 4 4 5 4 3 4 5 5 5 4 5 6 7 6 6 7 8 8 8 8 8 8 5 4 4 5 5 4 4 3 2 7 7 1 4 5 6 11 11 9 5 5 7 10 10 8 7 7 5 6 8 7 6 4 5 4 3 4 4 2 3 2 3 4 5 5 7 8 6 8 11 11
7 6 10 8 11 14 12 7 6 6 4 4 5 5 6 6 4 4 4 3 4 5 5 6 6 6 7 8 8 7 6 7 8 7 8 8 8 9 8 5 5 4 2 8 7 6 3 8 10 5 2 5 4 5 8 10 8 6 8 9 9 8 7 8 5 4 4 4 6 6 4 4 5 5 2 2 1 1 2 4 5 5 8 9 7 7 8 9
5 5 5 8 15 17 13 7 4 7 5 6 7 6 7 8 7 6 6 5 6 6 5 5 6 6 7 7 7 9 8 7 6 6 8 9 9 9 8 8 8 5 4 8 7 7 7 6 9 10 5 4 3 3 5 8 6 5 7 8 9 9 9 11 10 7 6 6 8 10 6 5 5 6 4 3 1 1 2 5 7 6 7 9 9 9 10 11
9 6 5 11 17 15 10 4 2 6 9 8 7 6 6 8 8 8 7 6 7 8 8 6 5 5 6 6 6 8 9 8 6 5 8 9 9 9 8 9 10 9 9 8 8 9 7 5 7 10 9 8 7 5 5 8 6 6 7 7 8 10 10 11 12 13 13 9 10 12 8 3 6 5 5 3 2 3 4 7 8 8 8 8 10 12 11 11
11 7 8 13 15 10 6 3 2 7 10 8 8 8 8 7 7 7 7 4 6 8 9 8 6 5 6 7 7 8 9 9 8 7 7 6 6 9 11 10 11 10 10 9 8 8 5 5 7 7 7 7 6 4 5 6 6 5 5 6 7 9 10 11 11 11 12 8 9 10 8 4 3 5 5 4 3 4 5 7 8 9 9 9 12 13 10 10
10 7 8 11 10 6 7 8 6 7 9 7 8 9 8 8 7 7 7 6 6 6 6 7 7 5 6 6 5 5 6 7 6 6 6 4 4 6 8 8 10 12 9 7 6 6 7 6 5 5 5 5 5 4 4 4 4 3 3 4 6 7 8 9 9 9 10 8 6 8 8 5 5 4 2 2 3 4 5 6 6 8 10 10 11 11 10 10
8 7 9 10 7 5 8 10 9 9 9 7 8 9 9 9 8 6 7 8 7 4 3 5 6 4 5 5 5 4 5 5 4 4 5 5 5 4 4 5 8 9 8 6 6 7 8 6 3 2 2 3 4 5 3 3 2 1 2 3 4 6 6 6 7 7 6 6 4 5 5 3 3 3 1 5 8 7 7 7 5 6 9 9 9 9 10 11
10 10 11 10 7 6 10 11 10 9 9 8 9 10 9 9 9 7 7 8 7 3 3 5 4 4 5 6 6 5 5 5 4 3 3 5 5 4 4 5 5 5 7 7 6 7 8 7 5 1 3 1 5 5 3 2 2 1 2 1 2 5 6 4 5 7 6 5 3 4 5 2 2 5 5 8 10 8 5 5 6 7 7 7 8 10 11 11
14 14 15 11 6 7 9 10 9 8 8 9 10 10 10 10 9 9 7 6 5 4 3 5 5 3 4 4 3 3 3 6 5 3 2 4 4 4 4 3 3 5 5 4 5 5 5 4 4 4 5 2 6 4 2 0 1 1 2 1 2 5 6 3 5 7 6 3 3 5 5 5 5 7 5 5 6 5 4 5 5 5 6 7 8 10 11 11
15 16 17 10 5 7 8 7 8 8 7 9 10 11 11 10 9 9 9 7 5 4 3 6 6 1 3 1 2 2 2 3 3 1 2 3 2 2 3 2 3 4 3 3 5 5 3 5 5 5 5 1 5 3 3 3 4 0 3 5 4 5 5 4 5 5 3 3 4 6 7 7 8 8 5 5 4 4 6 5 4 5 7 7 7 7 9 11
Wind_Direction
143 134 128 130 127 119 109 102 100 97 88 78 71 71 72 75 78 77 76 73 72 68 65 62 57 57 55 58 64 70 74 73 73 66 61 68 75 83 88 99 106 105 104 109 111 90 73 110 130 150 150 179 196 201 207 205 207 217 231 241 252 255 255 255 233 109 103 94 110 89 57 68 103 106 47 9 37 43 20 53 56 21 13 25 67 82 80 89
139 132 134 133 123 113 109 108 103 91 80 75 77 80 83 85 82 78 76 73 72 69 65 63 61 63 65 69 72 73 73 66 62 55 50 69 82 87 94 106 113 114 111 100 90 83 51 108 149 146 152 179 187 198 200 201 210 217 228 240 249 234 244 266 149 109 114 108 117 116 65 59 74 91 91 79 74 73 64 71 64 49 56 71 90 96 92 99
136 138 139 129 119 116 114 107 94 84 82 84 88 91 90 86 81 78 76 74 72 70 68 68 72 76 78 75 71 68 68 63 61 68 75 80 84 86 93 103 117 123 117 102 88 85 208 178 148 139 157 183 180 195 193 198 208 215 228 247 262 216 233 307 87 99 109 123 133 145 108 77 71 56 67 75 91 86 71 72 71 71 89 99 103 103 95 90
141 143 135 125 122 118 110 97 89 89 93 98 101 97 90 83 81 80 79 78 75 73 73 77 82 82 81 74 70 66 66 68 73 87 90 86 88 87 95 106 122 129 120 111 93 86 141 143 139 140 180 191 177 195 190 196 202 200 225 265 297 214 200 56 66 91 94 142 150 125 133 124 110 103 70 59 97 97 84 85 85 90 101 107 110 107 101 94
144 141 132 127 121 111 101 95 96 102 107 110 106 96 88 85 82 82 82 84 80 78 79 82 82 77 75 73 74 73 69 74 83 88 91 91 89 86 91 102 113 114 109 104 94 102 146 152 155 174 202 191 181 194 188 197 201 184 209 229 201 222 195 122 92 127 131 146 145 124 134 136 131 128 109 113 125 108 105 103 101 105 108 111 112 108 103 101
145 139 132 125 115 107 103 104 110 116 120 114 103 94 90 88 86 85 87 88 86 84 83 82 80 74 72 72 76 80 77 80 87 93 97 94 90 88 91 97 100 100 96 91 93 120 145 164 203 220 198 177 183 191 184 186 196 191 181 183 187 240 186 131 108 124 142 148 131 129 127 115 131 127 116 143 134 110 104 102 108 113 114 114 112 109 106 105
145 139 131 121 112 110 111 116 124 127 125 112 101 96 94 94 90 90 90 90 90 87 85 83 81 76 72 69 66 68 74 84 100 105 102 95 93 94 94 92 85 81 79 76 72 168 178 205 222 201 178 173 183 183 177 172 187 213 184 167 173 103 118 123 115 115 106 140 133 123 113 103 104 106 119 138 115 103 101 101 110 115 117 117 113 110 107 106
145 137 128 120 116 117 120 128 135 134 123 109 102 99 100 99 95 93 91 91 91 89 87 84 80 77 74 73 70 67 72 98 114 111 103 98 98 96 98 94 78 63 58 51 25 331 276 247 187 177 180 170 171 167 175 179 196 227 179 163 159 100 98 113 144 144 86 103 140 134 110 97 94 98 111 119 107 101 102 106 112 114 113 109 106 108 105 105
143 134 127 123 121 122 131 141 143 133 117 108 104 105 105 102 99 96 94 93 92 89 85 82 80 78 76 79 80 77 92 115 119 114 103 99 99 96 104 104 79 50 37 31 1 352 323 185 139 190 223 141 162 162 182 197 209 199 164 163 147 97 92 103 135 169 124 112 143 138 101 89 102 106 100 108 114 108 106 113 115 113 110 106 106 106 105 104
140 133 130 126 125 132 145 150 142 123 111 108 107 108 107 104 102 98 96 95 92 90 85 82 79 74 75 79 79 89 116 117 117 110 102 101 97 96 112 109 69 30 15 3 335 358 64 96 27 210 157 156 154 161 191 209 184 156 157 153 134 105 110 117 112 142 160 143 151 136 94 81 98 106 99 108 114 111 115 119 116 118 120 120 116 109 106 103
139 136 132 129 134 147 154 148 127 114 110 111 111 111 108 105 103 100 96 94 92 91 89 87 82 76 75 74 76 102 108 108 113 103 104 105 95 92 101 92 42 5 357 357 355 57 95 75 52 91 142 160 151 169 199 203 162 161 162 142 124 118 127 134 132 143 161 141 156 154 102 87 95 108 107 109 108 113 124 123 121 129 129 123 117 113 112 106
141 138 134 136 148 156 152 136 117 110 113 116 115 113 109 106 103 99 93 91 91 91 92 90 85 80 73 73 82 103 95 100 118 109 110 104 96 91 83 66 32 9 3 13 37 90 108 102 81 357 158 149 168 208 195 185 172 158 155 138 121 123 130 144 148 141 162 142 154 176 102 86 95 125 126 119 112 117 124 123 124 130 128 125 122 120 117 111
144 139 140 150 157 155 143 127 113 111 119 121 118 114 112 107 102 96 92 89 89 88 90 89 85 81 73 72 77 77 84 101 121 123 123 106 95 80 57 40 41 36 22 28 39 66 163 5 323 293 166 174 220 219 143 175 176 158 165 156 134 125 126 141 148 148 267 122 96 29 87 86 106 135 144 140 124 124 133 128 122 124 128 125 124 124 120 117
145 144 152 159 158 150 135 123 116 118 124 121 117 116 112 107 101 97 93 89 87 86 86 87 84 80 74 63 53 55 74 99 113 118 113 96 82 54 24 11 22 22 6 13 24 357 308 356 356 109 113 333 201 166 169 181 189 185 178 176 168 152 142 143 147 158 145 63 50 67 100 112 130 139 152 155 137 140 152 139 127 124 121 116 120 128 133 135
148 154 161 161 155 144 130 125 123 123 123 118 116 115 110 105 101 97 93 89 87 84 82 84 73 70 72 45 37 45 56 68 75 88 98 93 62 4 345 350 349 339 347 9 13 330 341 31 15 21 348 12 110 190 219 180 197 208 196 208 194 157 152 160 153 175 169 135 83 113 115 129 148 151 164 168 153 155 156 139 129 125 122 118 112 116 120 118
155 162 162 158 152 139 132 130 129 128 122 117 116 114 109 103 99 93 91 89 85 83 82 82 64 56 74 43 29 33 35 43 44 39 67 159 282 318 309 325 335 330 356 359 321 311 310 289 324 326 305 334 238 220 269 287 247 225 241 280 230 157 159 175 157 188 182 154 180 168 124 126 146 161 178 177 156 146 148 141 134 133 132 126 109 104 90 76
163 164 161 156 147 139 136 133 133 130 121 119 119 114 108 103 99 94 91 89 82 79 72 67 54 50 81 53 30 37 36 36 39 24 352 26 74 103 124 314 337 336 334 336 304 325 270 286 329 335 311 319 273 189 306 298 283 291 312 316 301 189 184 175 142 128 133 138 159 163 132 123 133 149 169 164 150 142 152 152 142 142 139 132 127 134 126 94
167 163 160 154 145 140 137 135 135 130 124 125 122 115 110 105 104 97 87 76 65 55 43 41 40 56 93 50 36 62 55 12 42 47 357 2 21 69 83 317 296 276 296 297 302 318 260 291 18 356 301 308 290 161 102 271 276 296 289 295 308 280 293 121 138 132 134 135 145 152 140 127 129 127 119 142 151 156 157 150 146 153 149 147 147 141 135 112
167 163 159 152 145 140 138 137 134 133 131 128 126 118 109 105 104 89 56 37 31 26 27 23 24 47 87 77 91 91 45 26 46 49 10 333 332 359 9 332 306 267 272 261 275 342 304 290 322 280 227 318 332 313 324 245 243 277 265 253 279 270 292 53 95 149 164 158 140 127 129 133 133 123 115 143 160 155 149 144 146 149 144 151 153 146 146 127
167 164 159 151 145 142 141 138 136 136 133 133 133 113 86 85 98 60 23 17 13 11 23 5 18 50 88 87 81 322 17 15 24 27 344 323 324 321 300 306 313 279 270 266 276 22 349 295 278 285 334 345 345 342 325 310 168 201 204 214 247 256 250 183 113 115 180 172 130 110 118 132 134 131 134 151 158 144 137 133 131 131 133 138 138 153 168 162
169 165 159 151 146 146 143 140 140 138 137 138 126 76 30 260 230 161 113 19 356 43 53 45 66 67 70 55 1 322 7 360 19 12 336 19 1 309 304 302 287 278 294 297 291 345 336 341 357 350 356 346 341 342 327 47 104 150 160 176 212 239 223 194 165 114 162 162 128 118 122 124 124 131 138 148 148 141 143 138 127 125 129 127 122 156 191 212
171 168 160 152 150 150 145 145 144 141 146 137 94 39 318 178 169 149 141 136 47 64 31 28 79 56 24 56 78 41 321 261 29 15 341 3 332 292 299 324 307 297 317 319 311 241 333 16 21 6 0 343 349 17 43 68 99 173 165 173 179 184 179 177 202 161 161 164 136 128 123 117 117 120 125 144 151 149 154 148 130 124 120 117 124 144 216 270
175 173 161 154 156 153 149 150 146 149 152 130 70 100 172 149 149 142 136 154 113 20 296 344 56 53 13 47 79 12 347 212 6 7 348 340 343 311 278 314 340 340 333 356 16 42 35 16 10 6 4 359 14 30 56 61 31 149 183 197 168 171 177 179 193 180 175 180 143 129 114 103 109 125 125 134 151 160 162 151 131 136 133 122 125 162 265 306
178 176 164 160 160 154 156 154 152 159 144 92 294 176 160 175 162 143 131 180 194 356 315 105 67 37 351 31 50 15 15 132 4 353 343 334 351 357 313 295 344 3 19 27 38 52 37 19 5 3 13 14 12 358 32 28 352 5 173 191 169 176 184 181 177 172 172 183 160 136 111 88 91 113 118 121 141 156 155 147 143 142 133 124 137 246 275 300
180 177 168 166 162 159 159 151 155 161 119 31 246 183 161 186 179 168 117 189 182 16 356 148 119 13 12 61 36 6 360 102 354 339 347 337 346 353 347 71 360 8 37 26 39 43 31 25 14 12 25 25 20 31 37 15 7 67 109 168 186 195 190 175 165 165 169 185 185 162 118 83 95 101 102 119 140 147 142 142 150 164 161 164 230 270 285 293
179 176 173 170 166 162 148 137 139 118 83 289 242 197 194 181 171 136 54 308 182 65 18 142 166 296 10 46 4 350 314 175 325 331 354 342 3 359 327 28 352 1 32 20 39 31 21 26 16 14 33 39 38 55 33 8 80 120 87 142 184 206 188 170 168 171 181 197 195 195 189 104 119 107 112 129 133 139 136 124 128 146 154 158 226 272 303 324
179 177 177 172 171 168 148 139 118 80 208 259 243 200 209 192 195 147 21 289 121 59 30 78 5 269 317 4 351 347 337 320 328 328 342 340 82 2 318 357 19 60 29 347 9 28 19 28 22 21 42 53 48 49 37 32 97 108 110 135 157 179 169 168 175 179 194 208 189 199 236 139 135 127 133 135 129 133 133 125 129 132 130 137 190 212 75 62
180 180 180 176 178 176 156 142 111 69 240 241 230 206 206 198 217 248 299 293 80 40 98 83 355 340 2 84 42 11 3 356 349 333 335 352 114 336 326 13 36 45 15 352 39 46 25 33 28 25 41 53 52 46 40 53 87 98 114 136 148 151 152 158 176 202 228 234 191 180 187 140 131 135 142 138 136 140 138 134 129 121 122 145 164 135 120 128
180 184 185 184 183 178 167 160 133 102 222 221 208 204 213 217 231 272 292 306 55 24 74 338 342 47 43 221 69 16 16 5 356 9 6 19 107 18 12 63 44 35 27 30 60 60 40 48 47 43 49 55 59 55 53 72 94 107 121 127 114 125 142 144 148 198 271 273 199 176 183 178 124 143 155 151 155 155 146 141 133 119 121 133 122 88 76 51
181 187 190 189 187 180 167 173 187 177 181 193 196 203 225 228 259 284 280 357 93 66 55 8 1 46 357 297 23 10 21 14 356 2 21 25 64 26 32 46 27 53 51 47 59 61 57 56 55 56 53 55 65 66 71 92 101 111 124 122 105 110 132 147 128 117 94 280 234 194 202 211 132 160 170 166 173 163 145 145 144 136 133 122 103 86 80 78
184 189 194 191 187 180 155 145 225 208 176 186 193 212 229 233 269 273 285 103 89 13 55 55 10 1 347 4 23 16 21 19 11 347 356 33 61 48 33 1 16 53 57 55 63 76 77 56 51 53 46 52 65 72 88 103 106 115 120 117 114 106 102 136 147 124 88 286 241 196 189 193 131 170 177 179 181 160 147 153 147 140 136 122 121 134 142 112
188 190 195 192 187 186 174 161 185 185 170 182 186 225 238 259 254 247 334 29 250 343 45 64 29 35 40 5 24 30 13 11 20 26 30 41 48 48 30 13 32 51 12 11 90 106 77 48 43 37 48 57 43 67 116 115 116 147 150 126 98 81 96 156 175 174 190 244 216 181 165 167 76 146 170 185 183 167 165 161 146 143 141 113 56 70 100 139
191 193 195 193 191 193 192 178 166 166 159 164 171 219 245 276 259 228 31 47 106 52 39 62 59 53 28 354 8 15 360 18 27 43 52 25 19 46 43 27 42 21 348 354 86 110 77 74 58 31 59 48 15 29 138 123 138 196 190 165 125 114 209 173 189 204 216 212 187 173 160 147 124 146 169 180 174 163 157 149 146 157 157 139 37 51 93 157
193 195 195 196 198 197 196 180 161 163 153 144 150 207 249 268 280 76 45 50 79 86 74 90 170 12 12 19 27 17 32 39 34 37 40 24 34 46 44 42 31 3 350 1 53 329 90 94 42 21 38 11 10 52 92 313 270 238 214 214 216 268 351 61 181 244 223 151 158 164 168 156 144 151 161 161 161 163 155 151 160 167 158 147 110 56 113 179
194 196 197 199 201 196 186 176 165 158 150 142 156 245 266 280 7 52 55 51 65 95 59 30 298 320 20 61 50 59 65 36 27 42 52 52 49 36 20 20 13 6 3 1 350 327 88 89 38 18 37 18 26 93 7 319 316 20 291 292 295 303 354 93 159 223 298 114 124 131 116 125 142 140 145 155 170 181 170 157 130 129 141 139 142 151 149 202
197 199 200 200 199 191 181 177 167 157 158 155 188 271 281 307 15 22 42 42 42 28 359 357 1 6 69 89 67 71 62 44 29 71 84 72 54 38 21 5 360 12 7 354 350 350 55 78 48 24 38 28 138 138 21 2 11 1 327 359 9 316 345 41 157 176 273 163 116 121 111 122 144 145 153 168 172 174 168 157 157 172 182 178 179 187 201 254
200 202 203 202 198 188 183 180 167 161 167 169 226 286 304 327 345 349 43 28 38 43 359 8 35 11 24 55 57 46 25 358 328 37 79 72 41 35 23 3 359 11 12 3 4 4 15 61 67 32 23 23 59 134 74 4 358 343 342 22 9 321 13 38 133 166 251 100 102 136 136 145 157 159 173 179 169 171 168 160 193 217 227 200 207 264 310 281
200 200 202 206 199 188 186 181 171 164 161 190 253 276 300 331 338 338 105 40 55 28 350 16 48 12 2 23 42 24 356 351 33 43 55 48 37 35 26 17 11 8 44 10 359 345 339 11 84 36 352 21 40 14 279 326 4 359 357 18 5 353 9 1 336 324 333 38 88 108 121 130 137 153 175 183 175 178 178 175 209 239 270 358 321 338 357 268
198 190 195 211 202 190 187 180 173 166 161 225 265 266 267 325 352 241 174 118 71 13 12 34 51 34 23 28 44 33 16 29 47 42 36 38 44 35 31 52 21 12 44 10 354 5 344 322 94 54 34 113 62 359 1 19 11 6 4 18 13 352 338 348 336 315 340 1 81 97 96 76 57 127 168 186 185 184 186 200 216 215 228 247 337 342 292 269
179 160 194 224 205 193 194 184 178 174 178 240 273 310 131 189 313 247 182 125 91 47 48 31 17 47 49 40 42 39 32 41 49 47 47 46 43 28 21 81 55 29 31 25 8 337 320 314 301 86 62 64 37 6 9 23 14 10 13 10 3 346 333 338 322 324 340 346 357 48 100 79 62 83 133 168 181 192 199 208 212 205 241 237 234 259 249 270
145 143 220 241 211 199 199 181 172 179 213 250 275 349 169 152 50 248 157 113 94 101 70 35 40 61 48 39 41 37 38 49 53 50 54 51 44 30 8 67 92 29 2 27 30 300 308 338 3 72 59 40 28 3 326 246 33 19 17 6 357 358 353 341 343 354 355 360 351 20 103 85 64 57 64 147 173 208 206 206 215 213 246 251 253 266 262 268
135 156 242 248 215 199 188 175 173 198 235 236 198 179 188 152 103 114 116 95 86 95 69 49 60 60 52 49 43 43 49 51 49 51 58 54 44 42 34 71 98 16 350 17 35 261 359 9 14 69 65 50 46 31 31 141 108 20 25 15 2 12 8 359 4 346 344 7 351 6 110 86 65 74 56 88 147 196 211 210 226 226 247 259 262 276 286 296
135 206 243 240 207 186 169 168 191 217 225 204 168 175 167 128 122 130 113 94 90 84 66 58 54 57 82 66 35 43 56 42 40 57 64 52 40 42 45 92 85 1 348 68 86 143 117 6 355 90 115 103 72 50 57 79 75 37 38 28 17 26 14 359 2 322 332 15 353 329 99 81 34 73 65 66 126 166 208 218 238 243 249 255 262 283 298 304
131 239 249 226 184 166 150 151 198 214 196 172 169 155 138 130 125 147 156 131 105 102 91 73 60 69 83 65 42 45 55 52 53 65 69 55 44 40 34 55 55 360 180 138 113 99 61 3 1 1 149 140 119 85 72 66 63 46 36 34 28 32 14 350 338 281 300 25 3 351 100 108 20 30 77 109 111 236 223 230 249 258 262 267 270 273 282 287
138 227 232 187 169 161 154 148 198 219 191 167 172 156 148 148 126 121 147 143 123 119 104 81 76 74 65 58 58 54 55 65 61 66 78 62 48 44 32 29 40 50 133 157 142 87 49 25 24 15 20 69 62 81 59 33 47 64 47 39 28 29 19 350 349 1 7 36 43 30 59 106 62 43 70 91 79 311 284 261 267 271 271 278 279 269 267 275
144 182 164 167 167 164 164 144 147 201 190 177 175 163 157 153 131 117 126 142 147 131 113 102 91 68 55 59 67 61 57 60 57 65 84 70 49 53 50 26 29 63 97 121 122 92 61 54 51 30 34 50 42 48 34 8 23 54 48 41 28 30 27 8 14 24 9 21 57 38 20 77 87 56 38 30 302 294 292 276 278 276 262 264 275 274 274 279
143 178 170 173 173 169 194 218 187 186 188 181 165 157 156 160 156 139 124 135 158 137 124 121 94 62 73 74 65 65 58 53 59 61 67 68 47 51 55 35 23 48 80 82 68 59 50 57 60 40 38 50 42 33 27 19 32 39 29 35 32 26 27 26 30 23 6 25 63 38 7 2 13 8 20 13 326 311 305 290 283 276 265 262 267 271 278 284
142 171 182 186 182 188 211 209 196 185 184 175 161 159 160 162 165 148 128 141 153 128 115 114 96 81 91 74 52 62 46 38 57 50 35 47 57 57 55 36 27 33 45 53 44 50 57 51 54 53 43 51 44 19 25 40 47 47 34 40 35 26 31 32 24 22 25 34 37 18 13 6 339 342 25 348 290 274 271 277 283 279 277 276 272 271 276 279
138 156 191 194 176 183 196 185 177 179 178 170 164 165 162 161 163 152 144 151 146 120 102 109 101 110 106 64 38 53 37 29 53 38 30 51 51 47 39 36 43 31 25 49 80 83 64 36 42 90 64 59 42 17 37 50 5 2 33 37 41 29 23 22 23 32 31 22 23 8 357 350 339 344 306 279 287 287 270 262 271 280 279 279 275 276 281 281
156 164 186 183 164 176 188 182 175 176 180 177 167 164 163 161 156 151 157 160 151 140 128 120 125 145 120 78 59 75 69 57 47 13 63 78 45 33 36 33 34 9 14 46 62 64 54 39 48 24 273 140 71 25 34 49 344 352 352 359 65 22 7 17 24 15 358 357 16 342 334 5 335 309 300 300 311 324 317 284 282 283 281 284 282 281 286 288
177 172 167 163 178 199 193 185 178 179 190 184 168 162 165 164 158 152 150 152 158 154 133 149 179 170 106 88 89 123 101 66 40 346 55 65 33 41 41 9 9 18 31 36 15 27 34 12 13 331 303 124 96 28 7 183 266 315 346 61 88 5 0 16 359 356 360 3 354 341 11 50 358 326 335 328 320 337 343 328 325 306 273 267 276 279 281 281
180 171 159 152 183 195 181 179 180 182 191 185 173 170 168 165 166 162 152 145 151 143 145 190 197 106 59 144 134 140 145 80 58 347 25 20 343 6 7 353 43 44 42 25 7 18 6 328 337 336 321 90 99 37 334 260 245 181 64 73 62 355 356 360 344 359 16 337 326 340 358 5 346 340 345 326 320 327 312 293 284 273 251 247 259 271 279 280